Time,TemperatureF,DewpointF,PressureIn,WindDirection,WindDirectionDegrees,WindSpeedMPH,WindSpeedGustMPH,Humidity,HourlyPrecipIn,Conditions,Clouds,dailyrainin,SolarRadiationWatts/m^2,SoftwareType,DateUTC
2013-01-10 00:02:00,34.2,33.4,29.87,East,91,0.0,0.0,97,0.00,,---,1.05,0.00,VWS V14.01,2013-01-10 08:02:00,
2013-01-10 00:07:00,34.3,33.5,29.87,East,91,0.0,0.0,97,0.00,,---,0.00,0.00,VWS V14.01,2013-01-10 08:07:00,
2013-01-10 00:12:00,34.4,33.6,29.87,East,91,1.0,1.0,97,0.00,,---,0.00,0.00,VWS V14.01,2013-01-10 08:12:00,
2013-01-10 00:18:00,34.4,33.6,29.87,SSW,200,2.0,4.0,97,0.00,,---,0.00,0.00,VWS V14.01,2013-01-10 08:18:00,
2013-01-10 00:23:00,34.4,33.6,29.88,WSW,237,0.0,4.0,97,0.00,,---,0.00,0.00,VWS V14.01,2013-01-10 08:23:00,
2013-01-10 00:28:00,34.4,33.6,29.87,SW,223,1.0,1.0,97,0.00,,---,0.00,0.00,VWS V14.01,2013-01-10 08:28:00,
2013-01-10 00:33:00,34.4,33.6,29.87,SW,214,3.0,3.0,97,0.00,,---,0.00,0.00,VWS V14.01,2013-01-10 08:33:00,
2013-01-10 00:38:00,34.4,33.6,29.87,SW,222,0.0,3.0,97,0.00,,---,0.00,0.00,VWS V14.01,2013-01-10 08:38:00,
2013-01-10 00:43:00,34.4,33.4,29.87,SE,136,2.0,4.0,96,0.00,,---,0.00,0.00,VWS V14.01,2013-01-10 08:43:00,
2013-01-10 00:48:00,34.5,33.5,29.88,ENE,65,0.0,4.0,96,0.00,,---,0.00,0.00,VWS V14.01,2013-01-10 08:48:00,
2013-01-10 00:53:00,34.6,33.6,29.88,ESE,117,0.0,5.0,96,0.00,,---,0.00,0.00,VWS V14.01,2013-01-10 08:53:00,
2013-01-10 00:58:00,34.6,33.6,29.88,ESE,116,0.0,4.0,96,0.00,,---,0.00,0.00,VWS V14.01,2013-01-10 08:58:00,
2013-01-10 01:03:00,34.6,33.3,29.88,WSW,239,0.0,3.0,95,0.00,,---,0.00,0.00,VWS V14.01,2013-01-10 09:03:00,
2013-01-10 01:08:00,34.6,33.3,29.88,WNW,298,1.0,4.0,95,0.00,,---,0.00,0.00,VWS V14.01,2013-01-10 09:08:00,
2013-01-10 01:13:00,34.7,33.4,29.88,SSW,202,0.0,4.0,95,0.00,,---,0.00,0.00,VWS V14.01,2013-01-10 09:13:00,
2013-01-10 01:18:00,34.7,33.4,29.88,SSW,202,0.0,1.0,95,0.00,,---,0.00,0.00,VWS V14.01,2013-01-10 09:18:00,
2013-01-10 01:23:00,34.7,33.4,29.88,SE,125,0.0,1.0,95,0.00,,---,0.00,0.00,VWS V14.01,2013-01-10 09:23:00,
2013-01-10 01:28:00,34.8,33.5,29.88,ESE,120,0.0,2.0,95,0.00,,---,0.00,0.00,VWS V14.01,2013-01-10 09:28:00,
2013-01-10 01:33:00,34.7,33.4,29.89,SSE,165,0.0,4.0,95,0.00,,---,0.00,0.00,VWS V14.01,2013-01-10 09:33:00,
2013-01-10 01:38:00,34.7,33.4,29.89,SSE,165,0.0,2.0,95,0.00,,---,0.00,0.00,VWS V14.01,2013-01-10 09:38:00,
2013-01-10 01:43:00,34.7,33.4,29.89,NE,36,0.0,1.0,95,0.00,,---,0.00,0.00,VWS V14.01,2013-01-10 09:43:00,
2013-01-10 01:48:00,34.8,33.5,29.89,ESE,113,0.0,4.0,95,0.00,,---,0.00,0.00,VWS V14.01,2013-01-10 09:48:00,
2013-01-10 01:53:00,34.8,33.5,29.89,West,265,0.0,4.0,95,0.00,,---,0.00,0.00,VWS V14.01,2013-01-10 09:53:00,
2013-01-10 01:58:00,34.8,33.2,29.89,SE,142,0.0,4.0,94,0.00,,---,0.00,0.00,VWS V14.01,2013-01-10 09:58:00,
2013-01-10 02:03:00,34.8,33.2,29.90,South,191,0.0,3.0,94,0.00,,---,0.00,0.00,VWS V14.01,2013-01-10 10:03:00,
2013-01-10 02:08:00,34.8,33.2,29.90,SSE,148,1.0,3.0,94,0.00,,---,0.00,0.00,VWS V14.01,2013-01-10 10:08:00,
2013-01-10 02:13:00,34.8,33.0,29.90,SSE,148,0.0,2.0,93,0.00,,---,0.00,0.00,VWS V14.01,2013-01-10 10:13:00,
2013-01-10 02:18:00,34.9,33.1,29.90,ESE,113,0.0,0.0,93,0.00,,---,0.00,0.00,VWS V14.01,2013-01-10 10:18:00,
2013-01-10 02:23:00,34.9,33.1,29.91,ESE,113,0.0,0.0,93,0.00,,---,0.00,0.00,VWS V14.01,2013-01-10 10:23:00,
2013-01-10 02:28:00,34.9,33.1,29.90,ESE,115,0.0,2.0,93,0.00,,---,0.00,0.00,VWS V14.01,2013-01-10 10:28:00,
2013-01-10 02:33:00,34.9,33.1,29.90,ESE,115,0.0,2.0,93,0.00,,---,0.00,0.00,VWS V14.01,2013-01-10 10:33:00,
2013-01-10 02:38:00,34.9,33.3,29.90,ESE,115,0.0,1.0,94,0.00,,---,0.00,0.00,VWS V14.01,2013-01-10 10:38:00,
2013-01-10 02:43:00,34.9,33.3,29.90,ESE,115,0.0,0.0,94,0.00,,---,0.00,0.00,VWS V14.01,2013-01-10 10:43:00,
2013-01-10 02:48:00,34.9,33.1,29.91,ESE,115,0.0,1.0,93,0.00,,---,0.00,0.00,VWS V14.01,2013-01-10 10:48:00,
2013-01-10 02:53:00,34.8,33.0,29.91,ESE,115,0.0,1.0,93,0.00,,---,0.00,0.00,VWS V14.01,2013-01-10 10:53:00,
2013-01-10 02:58:00,34.7,32.9,29.91,ESE,114,0.0,2.0,93,0.00,,---,0.00,0.00,VWS V14.01,2013-01-10 10:58:00,
2013-01-10 03:03:00,34.7,32.9,29.91,ESE,114,0.0,2.0,93,0.00,,---,0.00,0.00,VWS V14.01,2013-01-10 11:03:00,
2013-01-10 03:08:00,34.7,32.9,29.91,ESE,119,0.0,0.0,93,0.00,,---,0.00,0.00,VWS V14.01,2013-01-10 11:08:00,
2013-01-10 03:13:00,34.7,32.9,29.91,ESE,119,0.0,0.0,93,0.00,,---,0.00,0.00,VWS V14.01,2013-01-10 11:13:00,
2013-01-10 03:18:00,34.7,33.2,29.92,ESE,119,0.0,0.0,94,0.00,,---,0.00,0.00,VWS V14.01,2013-01-10 11:18:00,
2013-01-10 03:23:00,34.7,33.2,29.91,ESE,119,0.0,0.0,94,0.00,,---,0.00,0.00,VWS V14.01,2013-01-10 11:23:00,
2013-01-10 03:28:00,34.6,33.0,29.91,ESE,119,0.0,1.0,94,0.00,,---,0.00,0.00,VWS V14.01,2013-01-10 11:28:00,
2013-01-10 03:33:00,34.5,33.0,29.91,ESE,119,0.0,1.0,94,0.00,,---,0.00,0.00,VWS V14.01,2013-01-10 11:33:00,
2013-01-10 03:38:00,34.4,32.9,29.91,ESE,119,0.0,0.0,94,0.00,,---,0.00,0.00,VWS V14.01,2013-01-10 11:38:00,
2013-01-10 03:43:00,34.4,32.9,29.91,ESE,119,0.0,1.0,94,0.00,,---,0.00,0.00,VWS V14.01,2013-01-10 11:43:00,
2013-01-10 03:48:00,34.4,32.9,29.91,ESE,117,0.0,1.0,94,0.00,,---,0.00,0.00,VWS V14.01,2013-01-10 11:48:00,
2013-01-10 03:53:00,34.2,32.7,29.91,ESE,117,0.0,0.0,94,0.00,,---,0.00,0.00,VWS V14.01,2013-01-10 11:53:00,
2013-01-10 03:58:00,34.1,32.6,29.91,ESE,117,0.0,0.0,94,0.00,,---,0.00,0.00,VWS V14.01,2013-01-10 11:58:00,
2013-01-10 04:03:00,33.9,32.4,29.91,ESE,117,0.0,0.0,94,0.00,,---,0.00,0.00,VWS V14.01,2013-01-10 12:03:00,
2013-01-10 04:08:00,33.8,32.3,29.91,ESE,117,0.0,0.0,94,0.00,,---,0.00,0.00,VWS V14.01,2013-01-10 12:08:00,
2013-01-10 04:13:00,33.7,32.2,29.92,ESE,117,0.0,0.0,94,0.00,,---,0.00,0.00,VWS V14.01,2013-01-10 12:13:00,
2013-01-10 04:18:00,33.6,32.1,29.92,ESE,117,0.0,0.0,94,0.00,,---,0.00,0.00,VWS V14.01,2013-01-10 12:18:00,
2013-01-10 04:23:00,33.5,32.0,29.92,ESE,117,0.0,0.0,94,0.00,,---,0.00,0.00,VWS V14.01,2013-01-10 12:23:00,
2013-01-10 04:28:00,33.5,32.0,29.91,ESE,117,0.0,0.0,94,0.00,,---,0.00,0.00,VWS V14.01,2013-01-10 12:28:00,
2013-01-10 04:33:00,33.4,31.9,29.92,ESE,117,0.0,0.0,94,0.00,,---,0.00,0.00,VWS V14.01,2013-01-10 12:33:00,
2013-01-10 04:38:00,33.4,31.9,29.91,SW,217,0.0,2.0,94,0.00,,---,0.00,0.00,VWS V14.01,2013-01-10 12:38:00,
2013-01-10 04:43:00,33.3,31.8,29.91,SW,217,0.0,2.0,94,0.00,,---,0.00,0.00,VWS V14.01,2013-01-10 12:43:00,
2013-01-10 04:48:00,33.3,31.8,29.91,SW,217,0.0,1.0,94,0.00,,---,0.00,0.00,VWS V14.01,2013-01-10 12:48:00,
2013-01-10 04:53:00,33.2,31.9,29.92,SW,217,0.0,0.0,95,0.00,,---,0.00,0.00,VWS V14.01,2013-01-10 12:53:00,
2013-01-10 04:58:00,33.2,31.9,29.92,SW,217,0.0,0.0,95,0.00,,---,0.00,0.00,VWS V14.01,2013-01-10 12:58:00,
2013-01-10 05:03:00,33.1,31.8,29.92,SW,217,0.0,1.0,95,0.00,,---,0.00,0.00,VWS V14.01,2013-01-10 13:03:00,
2013-01-10 05:08:00,33.2,31.9,29.92,SW,225,0.0,2.0,95,0.00,,---,0.00,0.00,VWS V14.01,2013-01-10 13:08:00,
2013-01-10 05:13:00,33.1,31.8,29.92,South,188,0.0,2.0,95,0.00,,---,0.00,0.00,VWS V14.01,2013-01-10 13:13:00,
2013-01-10 05:18:00,33.0,31.7,29.92,South,188,0.0,1.0,95,0.00,,---,0.00,0.00,VWS V14.01,2013-01-10 13:18:00,
2013-01-10 05:23:00,32.9,31.4,29.92,South,188,0.0,0.0,94,0.00,,---,0.00,0.00,VWS V14.01,2013-01-10 13:23:00,
2013-01-10 05:28:00,32.8,31.5,29.92,South,188,0.0,0.0,95,0.00,,---,0.00,0.00,VWS V14.01,2013-01-10 13:28:00,
2013-01-10 05:34:00,32.8,31.5,29.92,South,188,0.0,0.0,95,0.00,,---,0.00,0.00,VWS V14.01,2013-01-10 13:34:00,
2013-01-10 05:39:00,32.8,31.5,29.93,South,188,0.0,0.0,95,0.00,,---,0.00,0.00,VWS V14.01,2013-01-10 13:39:00,
2013-01-10 05:44:00,32.8,31.5,29.93,South,188,0.0,0.0,95,0.00,,---,0.00,0.00,VWS V14.01,2013-01-10 13:44:00,
2013-01-10 05:49:00,32.8,31.5,29.93,South,188,0.0,0.0,95,0.00,,---,0.00,0.00,VWS V14.01,2013-01-10 13:49:00,
2013-01-10 05:54:00,32.8,31.5,29.93,South,188,0.0,0.0,95,0.00,,---,0.00,0.00,VWS V14.01,2013-01-10 13:54:00,
2013-01-10 05:59:00,32.9,31.6,29.93,South,188,0.0,0.0,95,0.00,,---,0.00,0.00,VWS V14.01,2013-01-10 13:59:00,
2013-01-10 06:04:00,32.9,31.6,29.93,South,188,0.0,0.0,95,0.00,,---,0.00,0.00,VWS V14.01,2013-01-10 14:04:00,
2013-01-10 06:09:00,32.9,31.6,29.93,South,188,0.0,0.0,95,0.00,,---,0.00,0.00,VWS V14.01,2013-01-10 14:09:00,
2013-01-10 06:14:00,32.9,31.6,29.94,South,188,0.0,1.0,95,0.00,,---,0.00,0.00,VWS V14.01,2013-01-10 14:14:00,
2013-01-10 06:19:00,32.8,31.5,29.94,South,188,0.0,1.0,95,0.00,,---,0.00,0.00,VWS V14.01,2013-01-10 14:19:00,
2013-01-10 06:24:00,32.7,31.4,29.94,SSW,213,1.0,2.0,95,0.00,,---,0.00,0.00,VWS V14.01,2013-01-10 14:24:00,
2013-01-10 06:29:00,32.5,31.2,29.95,WNW,297,0.0,2.0,95,0.00,,---,0.00,0.00,VWS V14.01,2013-01-10 14:29:00,
2013-01-10 06:34:00,32.4,31.1,29.95,WNW,297,0.0,1.0,95,0.00,,---,0.00,0.00,VWS V14.01,2013-01-10 14:34:00,
2013-01-10 06:39:00,32.2,30.9,29.95,WNW,297,0.0,0.0,95,0.00,,---,0.00,0.00,VWS V14.01,2013-01-10 14:39:00,
2013-01-10 06:44:00,32.1,30.8,29.95,WNW,297,0.0,0.0,95,0.00,,---,0.00,0.00,VWS V14.01,2013-01-10 14:44:00,
2013-01-10 06:49:00,32.0,30.7,29.95,WNW,297,0.0,0.0,95,0.00,,---,0.00,0.00,VWS V14.01,2013-01-10 14:49:00,
2013-01-10 06:54:00,31.9,30.6,29.95,WNW,297,0.0,0.0,95,0.00,,---,0.00,0.00,VWS V14.01,2013-01-10 14:54:00,
2013-01-10 06:59:00,31.9,30.9,29.96,WNW,297,0.0,0.0,96,0.00,,---,0.00,0.00,VWS V14.01,2013-01-10 14:59:00,
2013-01-10 07:04:00,31.9,30.9,29.96,WNW,297,0.0,0.0,96,0.00,,---,0.00,0.00,VWS V14.01,2013-01-10 15:04:00,
2013-01-10 07:09:00,31.9,30.9,29.96,WNW,297,0.0,0.0,96,0.00,,---,0.00,0.00,VWS V14.01,2013-01-10 15:09:00,
2013-01-10 07:14:00,31.9,30.9,29.96,WNW,297,0.0,0.0,96,0.00,,---,0.00,0.00,VWS V14.01,2013-01-10 15:14:00,
2013-01-10 07:19:00,31.9,30.9,29.96,WNW,297,0.0,0.0,96,0.00,,---,0.00,0.00,VWS V14.01,2013-01-10 15:19:00,
2013-01-10 07:24:00,32.0,31.0,29.96,WNW,297,0.0,1.0,96,0.00,,---,0.00,0.00,VWS V14.01,2013-01-10 15:24:00,
2013-01-10 07:29:00,31.9,30.9,29.97,WNW,297,0.0,1.0,96,0.00,,---,0.00,0.00,VWS V14.01,2013-01-10 15:29:00,
2013-01-10 07:34:00,31.8,30.8,29.97,WNW,297,0.0,0.0,96,0.00,,---,0.00,0.00,VWS V14.01,2013-01-10 15:34:00,
2013-01-10 07:39:00,31.7,30.7,29.98,WNW,297,0.0,0.0,96,0.00,,---,0.00,0.00,VWS V14.01,2013-01-10 15:39:00,
2013-01-10 07:44:00,31.7,30.7,29.98,WNW,297,0.0,0.0,96,0.00,,---,0.00,0.00,VWS V14.01,2013-01-10 15:44:00,
2013-01-10 07:49:00,31.6,30.6,29.98,WNW,297,0.0,0.0,96,0.00,,---,0.00,0.00,VWS V14.01,2013-01-10 15:49:00,
2013-01-10 07:54:00,31.6,30.6,29.98,WNW,297,0.0,0.0,96,0.00,,---,0.00,0.00,VWS V14.01,2013-01-10 15:54:00,
2013-01-10 07:59:00,31.6,30.6,29.98,WNW,297,0.0,0.0,96,0.00,,---,0.00,0.00,VWS V14.01,2013-01-10 15:59:00,
2013-01-10 08:04:00,31.5,30.5,29.99,WNW,297,0.0,0.0,96,0.00,,---,0.00,0.00,VWS V14.01,2013-01-10 16:04:00,
2013-01-10 08:09:00,31.5,30.5,29.99,WNW,297,0.0,0.0,96,0.00,,---,0.00,7.00,VWS V14.01,2013-01-10 16:09:00,
2013-01-10 08:14:00,31.5,30.5,29.99,WNW,297,0.0,0.0,96,0.00,,---,0.00,11.00,VWS V14.01,2013-01-10 16:14:00,
2013-01-10 08:19:00,31.5,30.5,29.99,WNW,297,0.0,0.0,96,0.00,,---,0.00,11.00,VWS V14.01,2013-01-10 16:19:00,
2013-01-10 08:24:00,31.6,30.6,29.99,WNW,297,0.0,0.0,96,0.00,,---,0.00,16.00,VWS V14.01,2013-01-10 16:24:00,
2013-01-10 08:29:00,31.8,30.8,29.99,WNW,297,0.0,0.0,96,0.00,,---,0.00,19.00,VWS V14.01,2013-01-10 16:29:00,
2013-01-10 08:34:00,32.0,31.0,29.99,WNW,297,0.0,0.0,96,0.00,,---,0.00,21.00,VWS V14.01,2013-01-10 16:34:00,
2013-01-10 08:39:00,32.1,31.1,30.00,WNW,297,0.0,0.0,96,0.00,,---,0.00,23.00,VWS V14.01,2013-01-10 16:39:00,
2013-01-10 08:44:00,32.3,31.3,30.00,WNW,297,0.0,0.0,96,0.00,,---,0.00,28.00,VWS V14.01,2013-01-10 16:44:00,
2013-01-10 08:49:00,32.4,31.4,30.00,WNW,297,0.0,0.0,96,0.00,,---,0.00,19.00,VWS V14.01,2013-01-10 16:49:00,
2013-01-10 08:54:00,32.6,31.8,30.00,WNW,297,0.0,0.0,97,0.00,,---,0.00,19.00,VWS V14.01,2013-01-10 16:54:00,
2013-01-10 08:59:00,32.8,32.0,30.00,WNW,297,0.0,0.0,97,0.00,,---,0.00,23.00,VWS V14.01,2013-01-10 16:59:00,
2013-01-10 09:04:00,32.9,32.1,30.00,WNW,297,0.0,0.0,97,0.00,,---,0.00,23.00,VWS V14.01,2013-01-10 17:04:00,
2013-01-10 09:09:00,33.0,32.2,30.00,WNW,297,0.0,2.0,97,0.00,,---,0.00,18.00,VWS V14.01,2013-01-10 17:09:00,
2013-01-10 09:14:00,33.1,32.3,30.00,WNW,297,0.0,0.0,97,0.00,,---,0.00,30.00,VWS V14.01,2013-01-10 17:14:00,
2013-01-10 09:19:00,33.2,32.4,30.00,WNW,297,0.0,0.0,97,0.00,,---,0.00,30.00,VWS V14.01,2013-01-10 17:19:00,
2013-01-10 09:24:00,33.4,32.6,30.00,WNW,297,0.0,0.0,97,0.00,,---,0.00,18.00,VWS V14.01,2013-01-10 17:24:00,
2013-01-10 09:29:00,33.4,32.6,30.00,WNW,297,0.0,0.0,97,0.00,,---,0.00,16.00,VWS V14.01,2013-01-10 17:29:00,
2013-01-10 09:35:00,33.5,32.7,30.00,WNW,297,0.0,0.0,97,0.00,,---,0.00,23.00,VWS V14.01,2013-01-10 17:35:00,
2013-01-10 09:40:00,33.6,32.8,30.00,WNW,297,0.0,0.0,97,0.00,,---,0.00,25.00,VWS V14.01,2013-01-10 17:40:00,
2013-01-10 09:45:00,33.7,32.9,30.00,WNW,297,0.0,0.0,97,0.00,,---,0.00,26.00,VWS V14.01,2013-01-10 17:45:00,
2013-01-10 09:50:00,33.9,33.1,30.00,WNW,297,0.0,1.0,97,0.00,,---,0.00,23.00,VWS V14.01,2013-01-10 17:50:00,
2013-01-10 09:55:00,34.0,33.2,30.00,WNW,297,1.0,1.0,97,0.00,,---,0.00,23.00,VWS V14.01,2013-01-10 17:55:00,
2013-01-10 10:00:00,34.1,33.3,30.00,WNW,297,0.0,1.0,97,0.00,,---,0.00,26.00,VWS V14.01,2013-01-10 18:00:00,
2013-01-10 10:05:00,34.2,33.4,30.00,ESE,119,0.0,4.0,97,0.00,,---,0.00,53.00,VWS V14.01,2013-01-10 18:05:00,
2013-01-10 10:10:00,34.4,33.6,30.01,ESE,119,1.0,2.0,97,0.00,,---,0.00,67.00,VWS V14.01,2013-01-10 18:10:00,
2013-01-10 10:15:00,34.4,33.6,30.01,ESE,119,0.0,2.0,97,0.00,,---,0.00,51.00,VWS V14.01,2013-01-10 18:15:00,
2013-01-10 10:20:00,34.7,33.9,30.01,ESE,119,0.0,0.0,97,0.00,,---,0.00,28.00,VWS V14.01,2013-01-10 18:20:00,
2013-01-10 10:25:00,34.9,34.1,30.01,ESE,119,0.0,1.0,97,0.00,,---,0.00,12.00,VWS V14.01,2013-01-10 18:25:00,
2013-01-10 10:30:00,35.0,34.2,30.01,ESE,119,0.0,0.0,97,0.00,,---,0.00,11.00,VWS V14.01,2013-01-10 18:30:00,
2013-01-10 10:35:00,35.0,34.2,30.01,ESE,119,0.0,1.0,97,0.00,,---,0.00,12.00,VWS V14.01,2013-01-10 18:35:00,
2013-01-10 10:40:00,35.0,34.2,30.01,WNW,288,0.0,2.0,97,0.00,,---,0.00,16.00,VWS V14.01,2013-01-10 18:40:00,
2013-01-10 10:45:00,34.9,34.1,30.01,SW,217,0.0,2.0,97,0.01,,---,0.01,46.00,VWS V14.01,2013-01-10 18:45:00,
2013-01-10 10:50:00,34.9,34.1,30.01,WSW,244,1.0,2.0,97,0.01,,---,0.01,77.00,VWS V14.01,2013-01-10 18:50:00,
2013-01-10 10:55:00,34.9,34.1,30.00,SW,225,0.0,3.0,97,0.01,,---,0.01,79.00,VWS V14.01,2013-01-10 18:55:00,
2013-01-10 11:00:00,35.0,34.2,30.00,SW,229,1.0,3.0,97,0.01,,---,0.01,74.00,VWS V14.01,2013-01-10 19:00:00,
2013-01-10 11:05:00,35.2,34.4,30.00,SSW,197,0.0,4.0,97,0.01,,---,0.01,49.00,VWS V14.01,2013-01-10 19:05:00,
2013-01-10 11:10:00,35.2,34.4,30.00,NW,306,0.0,4.0,97,0.01,,---,0.01,49.00,VWS V14.01,2013-01-10 19:10:00,
2013-01-10 11:15:00,35.3,34.5,30.00,West,269,2.0,5.0,97,0.01,,---,0.01,42.00,VWS V14.01,2013-01-10 19:15:00,
2013-01-10 11:20:00,35.3,34.5,30.00,East,91,0.0,5.0,97,0.01,,---,0.01,40.00,VWS V14.01,2013-01-10 19:20:00,
2013-01-10 11:25:00,35.3,34.5,30.00,WNW,288,0.0,4.0,97,0.01,,---,0.01,58.00,VWS V14.01,2013-01-10 19:25:00,
2013-01-10 11:30:00,35.3,34.5,30.00,WSW,256,0.0,3.0,97,0.01,,---,0.01,79.00,VWS V14.01,2013-01-10 19:30:00,
2013-01-10 11:35:00,35.3,34.5,29.99,WSW,242,0.0,3.0,97,0.01,,---,0.01,76.00,VWS V14.01,2013-01-10 19:35:00,
2013-01-10 11:40:00,35.4,34.6,29.99,South,173,0.0,5.0,97,0.01,,---,0.01,58.00,VWS V14.01,2013-01-10 19:40:00,
2013-01-10 11:45:00,35.5,34.7,29.99,NW,319,0.0,5.0,97,0.00,,---,0.01,47.00,VWS V14.01,2013-01-10 19:45:00,
2013-01-10 11:50:00,35.5,34.7,29.99,West,277,0.0,5.0,97,0.00,,---,0.01,46.00,VWS V14.01,2013-01-10 19:50:00,
2013-01-10 11:55:00,35.4,34.6,29.99,WNW,283,0.0,5.0,97,0.00,,---,0.01,42.00,VWS V14.01,2013-01-10 19:55:00,
2013-01-10 12:00:00,35.3,34.3,29.99,West,281,0.0,4.0,96,0.00,,---,0.01,32.00,VWS V14.01,2013-01-10 20:00:00,
2013-01-10 12:05:00,35.3,34.3,29.99,South,178,0.0,4.0,96,0.00,,---,0.01,30.00,VWS V14.01,2013-01-10 20:05:00,
2013-01-10 12:10:00,35.3,34.3,29.99,West,267,0.0,7.0,96,0.00,,---,0.01,33.00,VWS V14.01,2013-01-10 20:10:00,
2013-01-10 12:15:00,35.3,34.3,29.99,SW,229,0.0,3.0,96,0.00,,---,0.01,35.00,VWS V14.01,2013-01-10 20:15:00,
2013-01-10 12:20:00,35.3,34.3,29.98,WNW,298,0.0,3.0,96,0.00,,---,0.01,28.00,VWS V14.01,2013-01-10 20:20:00,
2013-01-10 12:25:00,35.3,34.3,29.98,WNW,298,0.0,3.0,96,0.00,,---,0.01,21.00,VWS V14.01,2013-01-10 20:25:00,
2013-01-10 12:30:00,35.3,34.3,29.98,WNW,298,0.0,1.0,96,0.00,,---,0.01,18.00,VWS V14.01,2013-01-10 20:30:00,
2013-01-10 12:35:00,35.3,34.3,29.98,WNW,297,0.0,1.0,96,0.00,,---,0.01,25.00,VWS V14.01,2013-01-10 20:35:00,
2013-01-10 12:40:00,35.3,34.3,29.98,WNW,294,0.0,1.0,96,0.00,,---,0.01,28.00,VWS V14.01,2013-01-10 20:40:00,
2013-01-10 12:45:00,35.3,34.3,29.98,WNW,294,0.0,1.0,96,0.00,,---,0.01,39.00,VWS V14.01,2013-01-10 20:45:00,
2013-01-10 12:50:00,35.4,34.4,29.98,WNW,294,0.0,2.0,96,0.00,,---,0.01,40.00,VWS V14.01,2013-01-10 20:50:00,
2013-01-10 12:55:00,35.5,34.5,29.98,WNW,288,0.0,2.0,96,0.00,,---,0.01,39.00,VWS V14.01,2013-01-10 20:55:00,
2013-01-10 13:00:00,35.5,34.5,29.98,West,261,0.0,4.0,96,0.00,,---,0.01,37.00,VWS V14.01,2013-01-10 21:00:00,
2013-01-10 13:05:00,35.7,34.7,29.98,West,261,0.0,1.0,96,0.00,,---,0.01,35.00,VWS V14.01,2013-01-10 21:05:00,
2013-01-10 13:10:00,35.7,34.7,29.98,West,261,1.0,1.0,96,0.00,,---,0.01,40.00,VWS V14.01,2013-01-10 21:10:00,
2013-01-10 13:15:00,35.8,34.8,29.98,West,261,0.0,2.0,96,0.00,,---,0.01,35.00,VWS V14.01,2013-01-10 21:15:00,
2013-01-10 13:20:00,35.8,34.8,29.98,WNW,298,0.0,4.0,96,0.00,,---,0.01,39.00,VWS V14.01,2013-01-10 21:20:00,
2013-01-10 13:25:00,35.8,34.8,29.99,WSW,242,0.0,4.0,96,0.00,,---,0.01,21.00,VWS V14.01,2013-01-10 21:25:00,
2013-01-10 13:30:00,35.7,34.7,29.99,WSW,257,0.0,4.0,96,0.00,,---,0.01,12.00,VWS V14.01,2013-01-10 21:30:00,
2013-01-10 13:35:00,35.6,34.6,29.99,WNW,294,0.0,5.0,96,0.00,,---,0.01,12.00,VWS V14.01,2013-01-10 21:35:00,
2013-01-10 13:40:00,35.5,34.5,29.99,West,260,0.0,3.0,96,0.01,,---,0.02,9.00,VWS V14.01,2013-01-10 21:40:00,
2013-01-10 13:46:00,35.5,34.5,30.00,West,260,2.0,2.0,96,0.01,,---,0.02,11.00,VWS V14.01,2013-01-10 21:46:00,
2013-01-10 13:51:00,35.4,34.4,30.00,West,273,1.0,5.0,96,0.01,,---,0.02,7.00,VWS V14.01,2013-01-10 21:51:00,
2013-01-10 13:56:00,35.3,34.3,30.00,West,275,1.0,5.0,96,0.01,,---,0.02,18.00,VWS V14.01,2013-01-10 21:56:00,
2013-01-10 14:01:00,35.2,34.2,30.00,SW,231,0.0,3.0,96,0.02,,---,0.03,23.00,VWS V14.01,2013-01-10 22:01:00,
2013-01-10 14:06:00,35.2,34.2,30.00,WSW,250,1.0,2.0,96,0.02,,---,0.03,18.00,VWS V14.01,2013-01-10 22:06:00,
2013-01-10 14:11:00,35.2,34.2,30.00,SW,236,3.0,3.0,96,0.02,,---,0.03,14.00,VWS V14.01,2013-01-10 22:11:00,
2013-01-10 14:16:00,35.1,34.1,30.00,SW,231,1.0,3.0,96,0.02,,---,0.03,23.00,VWS V14.01,2013-01-10 22:16:00,
2013-01-10 14:21:00,35.0,34.0,30.00,SW,215,0.0,3.0,96,0.02,,---,0.03,21.00,VWS V14.01,2013-01-10 22:21:00,
2013-01-10 14:26:00,35.0,34.0,30.00,WNW,283,1.0,3.0,96,0.02,,---,0.03,12.00,VWS V14.01,2013-01-10 22:26:00,
2013-01-10 14:31:00,34.9,33.9,30.00,WNW,284,0.0,3.0,96,0.02,,---,0.03,11.00,VWS V14.01,2013-01-10 22:31:00,
2013-01-10 14:36:00,34.8,33.8,30.00,WSW,254,2.0,3.0,96,0.02,,---,0.03,12.00,VWS V14.01,2013-01-10 22:36:00,
2013-01-10 14:41:00,34.7,33.7,30.00,WSW,254,0.0,2.0,96,0.01,,---,0.03,9.00,VWS V14.01,2013-01-10 22:41:00,
2013-01-10 14:46:00,34.5,33.5,30.00,WSW,254,0.0,2.0,96,0.01,,---,0.03,11.00,VWS V14.01,2013-01-10 22:46:00,
2013-01-10 14:51:00,34.5,33.5,30.00,WSW,254,0.0,1.0,96,0.01,,---,0.03,12.00,VWS V14.01,2013-01-10 22:51:00,
2013-01-10 14:56:00,34.6,33.6,30.00,WSW,254,0.0,1.0,96,0.01,,---,0.03,9.00,VWS V14.01,2013-01-10 22:56:00,
2013-01-10 15:01:00,34.7,33.7,30.00,WNW,287,0.0,2.0,96,0.01,,---,0.04,9.00,VWS V14.01,2013-01-10 23:01:00,
2013-01-10 15:06:00,34.8,33.8,30.00,WNW,303,0.0,2.0,96,0.01,,---,0.04,11.00,VWS V14.01,2013-01-10 23:06:00,
2013-01-10 15:11:00,34.9,33.9,30.00,WNW,303,0.0,1.0,96,0.01,,---,0.04,11.00,VWS V14.01,2013-01-10 23:11:00,
2013-01-10 15:16:00,34.9,33.9,30.00,SW,223,0.0,2.0,96,0.01,,---,0.04,12.00,VWS V14.01,2013-01-10 23:16:00,
2013-01-10 15:21:00,35.0,34.0,30.00,SW,223,0.0,2.0,96,0.01,,---,0.04,7.00,VWS V14.01,2013-01-10 23:21:00,
2013-01-10 15:26:00,35.0,34.0,30.00,SW,223,0.0,2.0,96,0.01,,---,0.04,7.00,VWS V14.01,2013-01-10 23:26:00,
2013-01-10 15:31:00,35.1,34.1,30.00,SW,223,0.0,2.0,96,0.01,,---,0.04,7.00,VWS V14.01,2013-01-10 23:31:00,
2013-01-10 15:36:00,35.1,34.1,30.00,SW,223,0.0,0.0,96,0.01,,---,0.04,7.00,VWS V14.01,2013-01-10 23:36:00,
2013-01-10 15:41:00,35.2,34.2,30.00,SW,223,0.0,1.0,96,0.01,,---,0.04,0.00,VWS V14.01,2013-01-10 23:41:00,
2013-01-10 15:47:00,35.2,34.2,30.00,SW,223,0.0,1.0,96,0.01,,---,0.04,0.00,VWS V14.01,2013-01-10 23:47:00,
2013-01-10 15:52:00,35.3,34.5,30.00,SW,223,0.0,1.0,97,0.01,,---,0.04,0.00,VWS V14.01,2013-01-10 23:52:00,
2013-01-10 15:57:00,35.3,34.5,30.01,SW,223,0.0,1.0,97,0.01,,---,0.04,0.00,VWS V14.01,2013-01-10 23:57:00,
2013-01-10 16:02:00,35.3,34.5,30.01,West,262,0.0,2.0,97,0.00,,---,0.04,0.00,VWS V14.01,2013-01-11 00:02:00,
2013-01-10 16:07:00,35.3,34.5,30.01,West,262,0.0,2.0,97,0.00,,---,0.04,0.00,VWS V14.01,2013-01-11 00:07:00,
2013-01-10 16:12:00,35.3,34.5,30.01,West,261,0.0,2.0,97,0.00,,---,0.04,0.00,VWS V14.01,2013-01-11 00:12:00,
2013-01-10 16:17:00,35.3,34.5,30.01,West,261,0.0,2.0,97,0.00,,---,0.04,0.00,VWS V14.01,2013-01-11 00:17:00,
2013-01-10 16:22:00,35.4,34.6,30.01,West,261,0.0,2.0,97,0.00,,---,0.04,0.00,VWS V14.01,2013-01-11 00:22:00,
2013-01-10 16:27:00,35.4,34.6,30.01,West,261,0.0,2.0,97,0.00,,---,0.04,0.00,VWS V14.01,2013-01-11 00:27:00,
2013-01-10 16:32:00,35.4,34.6,30.01,West,261,0.0,2.0,97,0.00,,---,0.04,0.00,VWS V14.01,2013-01-11 00:32:00,
2013-01-10 16:37:00,35.4,34.6,30.01,SSW,207,0.0,2.0,97,0.00,,---,0.04,0.00,VWS V14.01,2013-01-11 00:37:00,
2013-01-10 16:42:00,35.4,34.6,30.01,WSW,248,0.0,2.0,97,0.00,,---,0.04,0.00,VWS V14.01,2013-01-11 00:42:00,
2013-01-10 16:47:00,35.4,34.6,30.01,West,271,1.0,2.0,97,0.00,,---,0.04,0.00,VWS V14.01,2013-01-11 00:47:00,
2013-01-10 16:52:00,35.3,34.5,30.01,West,269,0.0,3.0,97,0.00,,---,0.04,0.00,VWS V14.01,2013-01-11 00:52:00,
2013-01-10 16:57:00,35.2,34.4,30.01,NW,304,0.0,3.0,97,0.00,,---,0.04,0.00,VWS V14.01,2013-01-11 00:57:00,
2013-01-10 17:02:00,35.1,34.1,30.01,NW,304,0.0,3.0,96,0.00,,---,0.04,0.00,VWS V14.01,2013-01-11 01:02:00,
2013-01-10 17:07:00,34.8,33.8,30.01,NW,304,0.0,1.0,96,0.00,,---,0.04,0.00,VWS V14.01,2013-01-11 01:07:00,
2013-01-10 17:12:00,34.6,33.6,30.01,NW,304,0.0,0.0,96,0.00,,---,0.04,0.00,VWS V14.01,2013-01-11 01:12:00,
2013-01-10 17:17:00,34.4,33.4,30.01,NW,304,0.0,1.0,96,0.00,,---,0.04,0.00,VWS V14.01,2013-01-11 01:17:00,
2013-01-10 17:23:00,34.3,33.3,30.01,NW,304,0.0,1.0,96,0.00,,---,0.04,0.00,VWS V14.01,2013-01-11 01:23:00,
2013-01-10 17:28:00,34.1,33.1,30.01,NW,304,0.0,0.0,96,0.00,,---,0.04,0.00,VWS V14.01,2013-01-11 01:28:00,
2013-01-10 17:33:00,33.8,32.8,30.01,NW,304,0.0,0.0,96,0.00,,---,0.04,0.00,VWS V14.01,2013-01-11 01:33:00,
2013-01-10 17:38:00,33.5,32.5,30.01,NW,304,0.0,0.0,96,0.00,,---,0.04,0.00,VWS V14.01,2013-01-11 01:38:00,
2013-01-10 17:43:00,33.3,32.3,30.01,WSW,248,0.0,3.0,96,0.00,,---,0.04,0.00,VWS V14.01,2013-01-11 01:43:00,
2013-01-10 17:48:00,33.1,32.1,30.01,WSW,248,0.0,3.0,96,0.00,,---,0.04,0.00,VWS V14.01,2013-01-11 01:48:00,
2013-01-10 17:53:00,33.0,32.0,30.01,WSW,248,0.0,0.0,96,0.00,,---,0.04,0.00,VWS V14.01,2013-01-11 01:53:00,
2013-01-10 17:58:00,32.9,31.9,30.01,WSW,248,0.0,0.0,96,0.00,,---,0.04,0.00,VWS V14.01,2013-01-11 01:58:00,
2013-01-10 18:03:00,32.9,31.9,30.01,WSW,248,0.0,0.0,96,0.00,,---,0.04,0.00,VWS V14.01,2013-01-11 02:03:00,
2013-01-10 18:08:00,32.8,31.8,30.01,WSW,248,0.0,0.0,96,0.00,,---,0.04,0.00,VWS V14.01,2013-01-11 02:08:00,
2013-01-10 18:13:00,32.7,31.7,30.01,WSW,248,0.0,0.0,96,0.00,,---,0.04,0.00,VWS V14.01,2013-01-11 02:13:00,
2013-01-10 18:18:00,32.5,31.5,30.01,WSW,248,0.0,0.0,96,0.00,,---,0.04,0.00,VWS V14.01,2013-01-11 02:18:00,
2013-01-10 18:23:00,32.4,31.4,30.01,WSW,248,0.0,0.0,96,0.00,,---,0.04,0.00,VWS V14.01,2013-01-11 02:23:00,
2013-01-10 18:28:00,32.2,31.2,30.01,WSW,248,0.0,0.0,96,0.00,,---,0.04,0.00,VWS V14.01,2013-01-11 02:28:00,
2013-01-10 18:33:00,32.0,31.0,30.01,WSW,248,0.0,0.0,96,0.00,,---,0.04,0.00,VWS V14.01,2013-01-11 02:33:00,
2013-01-10 18:38:00,31.7,30.7,30.01,WSW,248,0.0,0.0,96,0.00,,---,0.04,0.00,VWS V14.01,2013-01-11 02:38:00,
2013-01-10 18:43:00,31.6,30.6,30.01,WSW,248,0.0,0.0,96,0.00,,---,0.04,0.00,VWS V14.01,2013-01-11 02:43:00,
2013-01-10 18:48:00,31.4,30.4,30.02,WSW,248,0.0,0.0,96,0.00,,---,0.04,0.00,VWS V14.01,2013-01-11 02:48:00,
2013-01-10 18:53:00,31.4,30.4,30.01,WSW,248,0.0,0.0,96,0.00,,---,0.04,0.00,VWS V14.01,2013-01-11 02:53:00,
2013-01-10 18:58:00,31.4,30.4,30.02,WSW,248,0.0,0.0,96,0.00,,---,0.04,0.00,VWS V14.01,2013-01-11 02:58:00,
2013-01-10 19:03:00,31.4,30.4,30.02,WSW,248,0.0,0.0,96,0.00,,---,0.04,0.00,VWS V14.01,2013-01-11 03:03:00,
2013-01-10 19:08:00,31.5,30.5,30.02,WSW,248,0.0,0.0,96,0.00,,---,0.04,0.00,VWS V14.01,2013-01-11 03:08:00,
2013-01-10 19:13:00,31.7,30.7,30.02,WSW,248,0.0,0.0,96,0.00,,---,0.04,0.00,VWS V14.01,2013-01-11 03:13:00,
2013-01-10 19:18:00,31.7,30.7,30.02,WSW,248,0.0,0.0,96,0.00,,---,0.04,0.00,VWS V14.01,2013-01-11 03:18:00,
2013-01-10 19:23:00,31.8,30.8,30.02,WSW,248,0.0,0.0,96,0.00,,---,0.04,0.00,VWS V14.01,2013-01-11 03:23:00,
2013-01-10 19:28:00,31.8,30.8,30.02,WSW,248,0.0,0.0,96,0.00,,---,0.04,0.00,VWS V14.01,2013-01-11 03:28:00,
2013-01-10 19:33:00,31.9,30.9,30.02,WSW,248,0.0,0.0,96,0.00,,---,0.04,0.00,VWS V14.01,2013-01-11 03:33:00,
2013-01-10 19:38:00,31.8,30.8,30.02,WSW,248,0.0,0.0,96,0.00,,---,0.04,0.00,VWS V14.01,2013-01-11 03:38:00,
2013-01-10 19:43:00,31.7,30.7,30.02,WSW,248,0.0,0.0,96,0.00,,---,0.04,0.00,VWS V14.01,2013-01-11 03:43:00,
2013-01-10 19:48:00,31.6,30.6,30.02,WSW,248,0.0,0.0,96,0.00,,---,0.04,0.00,VWS V14.01,2013-01-11 03:48:00,
2013-01-10 19:53:00,31.5,30.5,30.02,WSW,248,0.0,0.0,96,0.00,,---,0.04,0.00,VWS V14.01,2013-01-11 03:53:00,
2013-01-10 19:58:00,31.4,30.4,30.02,WSW,248,0.0,0.0,96,0.00,,---,0.04,0.00,VWS V14.01,2013-01-11 03:58:00,
2013-01-10 20:03:00,31.3,30.3,30.02,WSW,248,0.0,0.0,96,0.00,,---,0.04,0.00,VWS V14.01,2013-01-11 04:03:00,
2013-01-10 20:08:00,31.2,30.2,30.02,WSW,248,0.0,0.0,96,0.00,,---,0.04,0.00,VWS V14.01,2013-01-11 04:08:00,
2013-01-10 20:13:00,31.1,30.1,30.02,WSW,248,0.0,0.0,96,0.00,,---,0.04,0.00,VWS V14.01,2013-01-11 04:13:00,
2013-01-10 20:18:00,31.0,30.0,30.02,WSW,248,0.0,0.0,96,0.00,,---,0.04,0.00,VWS V14.01,2013-01-11 04:18:00,
2013-01-10 20:23:00,31.0,30.0,30.02,WSW,248,0.0,0.0,96,0.00,,---,0.04,0.00,VWS V14.01,2013-01-11 04:23:00,
2013-01-10 20:28:00,30.9,29.9,30.02,WSW,248,0.0,0.0,96,0.00,,---,0.04,0.00,VWS V14.01,2013-01-11 04:28:00,
2013-01-10 20:34:00,30.9,29.9,30.02,WSW,248,0.0,0.0,96,0.00,,---,0.04,0.00,VWS V14.01,2013-01-11 04:34:00,
2013-01-10 20:39:00,30.8,29.8,30.02,WSW,248,0.0,0.0,96,0.00,,---,0.04,0.00,VWS V14.01,2013-01-11 04:39:00,
2013-01-10 20:44:00,30.8,29.8,30.02,WSW,248,0.0,0.0,96,0.00,,---,0.04,0.00,VWS V14.01,2013-01-11 04:44:00,
2013-01-10 20:49:00,30.7,29.7,30.02,WSW,248,0.0,0.0,96,0.00,,---,0.04,0.00,VWS V14.01,2013-01-11 04:49:00,
2013-01-10 20:54:00,30.6,29.6,30.02,WSW,248,0.0,0.0,96,0.00,,---,0.04,0.00,VWS V14.01,2013-01-11 04:54:00,
2013-01-10 20:59:00,30.6,29.6,30.02,WSW,248,0.0,0.0,96,0.00,,---,0.04,0.00,VWS V14.01,2013-01-11 04:59:00,
2013-01-10 21:01:00,30.6,29.6,30.02,WSW,248,0.0,0.0,96,0.00,,---,0.04,0.00,VWS V14.01,2013-01-11 05:01:00,
2013-01-10 21:02:00,30.6,29.6,30.02,WSW,248,0.0,0.0,96,0.00,,---,0.04,0.00,VWS V14.01,2013-01-11 05:02:00,
2013-01-10 21:03:00,30.5,29.5,30.02,WSW,248,0.0,0.0,96,0.00,,---,0.04,0.00,VWS V14.01,2013-01-11 05:03:00,
2013-01-10 21:08:00,30.5,29.5,30.02,WSW,248,0.0,0.0,96,0.00,,---,0.04,0.00,VWS V14.01,2013-01-11 05:08:00,
2013-01-10 21:13:00,30.4,29.4,30.03,WSW,248,0.0,0.0,96,0.00,,---,0.04,0.00,VWS V14.01,2013-01-11 05:13:00,
2013-01-10 21:18:00,30.3,29.3,30.03,WSW,248,0.0,0.0,96,0.00,,---,0.04,0.00,VWS V14.01,2013-01-11 05:18:00,
2013-01-10 21:23:00,30.2,29.2,30.03,WSW,248,0.0,0.0,96,0.00,,---,0.04,0.00,VWS V14.01,2013-01-11 05:23:00,
2013-01-10 21:28:00,30.2,29.2,30.03,WSW,248,0.0,0.0,96,0.00,,---,0.04,0.00,VWS V14.01,2013-01-11 05:28:00,
2013-01-10 21:33:00,30.1,29.1,30.03,WSW,248,0.0,0.0,96,0.00,,---,0.04,0.00,VWS V14.01,2013-01-11 05:33:00,
2013-01-10 21:38:00,30.0,29.0,30.03,WSW,248,0.0,0.0,96,0.00,,---,0.04,0.00,VWS V14.01,2013-01-11 05:38:00,
2013-01-10 21:43:00,29.9,28.9,30.03,WSW,248,0.0,1.0,96,0.00,,---,0.04,0.00,VWS V14.01,2013-01-11 05:43:00,
2013-01-10 21:48:00,29.9,28.9,30.03,WSW,248,0.0,1.0,96,0.00,,---,0.04,0.00,VWS V14.01,2013-01-11 05:48:00,
2013-01-10 21:53:00,29.9,28.9,30.03,WSW,248,0.0,0.0,96,0.00,,---,0.04,0.00,VWS V14.01,2013-01-11 05:53:00,
2013-01-10 21:58:00,29.8,28.8,30.03,WSW,248,0.0,0.0,96,0.00,,---,0.04,0.00,VWS V14.01,2013-01-11 05:58:00,
2013-01-10 22:04:00,29.9,28.9,30.03,WSW,248,0.0,1.0,96,0.00,,---,0.04,0.00,VWS V14.01,2013-01-11 06:04:00,
2013-01-10 22:09:00,29.9,28.9,30.03,WSW,248,0.0,0.0,96,0.00,,---,0.04,0.00,VWS V14.01,2013-01-11 06:09:00,
2013-01-10 22:14:00,29.8,28.8,30.03,WSW,248,0.0,0.0,96,0.00,,---,0.04,0.00,VWS V14.01,2013-01-11 06:14:00,
2013-01-10 22:19:00,29.8,28.8,30.03,WSW,248,0.0,0.0,96,0.00,,---,0.04,0.00,VWS V14.01,2013-01-11 06:19:00,
2013-01-10 22:24:00,29.8,28.8,30.03,WSW,248,0.0,0.0,96,0.00,,---,0.04,0.00,VWS V14.01,2013-01-11 06:24:00,
2013-01-10 22:29:00,29.8,28.8,30.04,WSW,248,0.0,0.0,96,0.00,,---,0.04,0.00,VWS V14.01,2013-01-11 06:29:00,
2013-01-10 22:34:00,29.7,28.7,30.04,WSW,248,0.0,0.0,96,0.00,,---,0.04,0.00,VWS V14.01,2013-01-11 06:34:00,
2013-01-10 22:39:00,29.7,28.7,30.04,WSW,248,0.0,0.0,96,0.00,,---,0.04,0.00,VWS V14.01,2013-01-11 06:39:00,
2013-01-10 22:44:00,29.6,28.6,30.04,WSW,248,0.0,0.0,96,0.00,,---,0.04,0.00,VWS V14.01,2013-01-11 06:44:00,
2013-01-10 22:49:00,29.6,28.6,30.04,WSW,248,0.0,0.0,96,0.00,,---,0.04,0.00,VWS V14.01,2013-01-11 06:49:00,
2013-01-10 22:54:00,29.5,28.5,30.04,WSW,248,0.0,0.0,96,0.00,,---,0.04,0.00,VWS V14.01,2013-01-11 06:54:00,
2013-01-10 22:59:00,29.4,28.4,30.04,WSW,248,0.0,1.0,96,0.00,,---,0.04,0.00,VWS V14.01,2013-01-11 06:59:00,
2013-01-10 23:04:00,29.4,28.4,30.04,WSW,248,0.0,1.0,96,0.00,,---,0.04,0.00,VWS V14.01,2013-01-11 07:04:00,
2013-01-10 23:09:00,29.4,28.4,30.04,WSW,248,0.0,0.0,96,0.00,,---,0.04,0.00,VWS V14.01,2013-01-11 07:09:00,
2013-01-10 23:14:00,29.3,28.6,30.04,WSW,248,0.0,0.0,97,0.00,,---,0.04,0.00,VWS V14.01,2013-01-11 07:14:00,
2013-01-10 23:19:00,29.2,28.5,30.04,WSW,248,0.0,0.0,97,0.00,,---,0.04,0.00,VWS V14.01,2013-01-11 07:19:00,
2013-01-10 23:24:00,29.2,28.5,30.04,WSW,248,0.0,0.0,97,0.00,,---,0.04,0.00,VWS V14.01,2013-01-11 07:24:00,
2013-01-10 23:29:00,29.1,28.4,30.04,WSW,248,0.0,0.0,97,0.00,,---,0.04,0.00,VWS V14.01,2013-01-11 07:29:00,
2013-01-10 23:34:00,29.1,28.4,30.04,WSW,248,0.0,0.0,97,0.00,,---,0.04,0.00,VWS V14.01,2013-01-11 07:34:00,
2013-01-10 23:39:00,29.0,28.3,30.04,WSW,248,0.0,0.0,97,0.00,,---,0.04,0.00,VWS V14.01,2013-01-11 07:39:00,
2013-01-10 23:44:00,29.0,28.0,30.04,WSW,248,0.0,0.0,96,0.00,,---,0.04,0.00,VWS V14.01,2013-01-11 07:44:00,
2013-01-10 23:49:00,28.9,27.9,30.04,WSW,248,0.0,0.0,96,0.00,,---,0.04,0.00,VWS V14.01,2013-01-11 07:49:00,
2013-01-10 23:54:00,28.8,27.8,30.04,WSW,248,0.0,0.0,96,0.00,,---,0.04,0.00,VWS V14.01,2013-01-11 07:54:00,
2013-01-10 23:59:00,28.8,27.8,30.04,WSW,248,0.0,0.0,96,0.00,,---,0.04,0.00,VWS V14.01,2013-01-11 07:59:00,